Flag for U.S.A. Weather past 2 weeks in Columbia, South Carolina, U.S.A.

Now
48 °F

Low clouds.


Feels Like: 47 °F
Forecast: 40 / 49 °F
Wind: 3 mph from North

Location: Columbia Owens Downtown Airport

Current Time: Dec 20, 2014 at 2:38:32 PM

Latest Report: Dec 20, 2014 at 1:53 PM


Visibility: 8 mi

Pressure: 30.19 "Hg

Humidity: 83%

Dew point: 43 °F

Location of ColumbiaLocation

Historic Weather in Columbia — Graph

°F

Columbia temperature yesterday

Maximum temperature yesterday: 61 °F (at 2:53 PM)
Minimum temperature yesterday: 37 °F (at 6:53 AM)
Average temperature yesterday: 49 °F

Past Weeks' High & Low Weather Summary

 TemperatureHumidityPressure
High68 °F (Dec 15, 3:53 PM)93% (Dec 16, 4:53 AM)30.40 "Hg (Dec 16, 4:53 AM)
Low27 °F (Dec 12, 6:53 AM)16% (Dec 12, 2:53 PM)29.91 "Hg (Dec 16, 3:53 PM)
Average47 °F65%30.14 "Hg
* Reported Dec 5 12:53 PM — Dec 20 12:53 PM, Columbia, Weather by CustomWeather, © 2014

Note: Actual official high and low records may vary slightly from our data, if they occured in-between our weather recording intervals... More about our weather records

Advertising

Columbia weather history for previous 24 hours

 ConditionsComfort  
Time TempWeatherWind HumidityBarometerVisibility
12:53 PM
Dec 20
48 °FMore clouds than sun.7 mph83%30.21 "Hg8 mi
11:53 AM47 °FOvercast.No wind83%30.24 "Hg7 mi
10:53 AM47 °FLight rain. Overcast.No wind86%30.25 "Hg7 mi
9:53 AM46 °FOvercast.No wind86%30.24 "Hg9 mi
8:53 AM45 °FLight rain. Mostly cloudy.5 mph86%30.23 "Hg7 mi
7:53 AM45 °FLight rain. Overcast.3 mph86%30.22 "Hg7 mi
6:53 AM45 °FOvercast.No wind90%30.20 "Hg10 mi
5:53 AM46 °FLight rain. Overcast.No wind86%30.18 "Hg9 mi
4:53 AM46 °FLight rain. Overcast.No wind89%30.17 "Hg8 mi
3:53 AM47 °FLight rain. Overcast.No wind90%30.18 "Hg7 mi
2:53 AM48 °FLight rain. Overcast.No wind74%30.18 "Hg8 mi
1:53 AM49 °FOvercast.No wind66%30.16 "Hg10 mi
12:53 AM49 °FPassing clouds.No wind64%30.17 "Hg10 mi
11:53 PM
Dec 19
50 °FClear.No wind57%30.19 "Hg10 mi
10:53 PM48 °FClear.No wind68%30.17 "Hg10 mi
9:53 PM49 °FClear.No wind66%30.16 "Hg10 mi
8:53 PM51 °FClear.No wind61%30.15 "Hg10 mi
7:53 PM51 °FClear.No wind63%30.14 "Hg10 mi
6:53 PM52 °FClear.No wind64%30.14 "Hg10 mi
5:53 PM54 °FClear.No wind59%30.13 "Hg10 mi
4:53 PM59 °FSunny.No wind42%30.11 "Hg10 mi
3:53 PM61 °FSunny.No wind38%30.10 "Hg10 mi
2:53 PM61 °FSunny.3 mph38%30.10 "Hg10 mi
Weather by CustomWeather, © 2014

See weather overviewHow to use our weather pages